Regional Weather Roundup
Issued by NWS

Home | Current Version | Previous Version | Text Only | Print | Product List | Glossary On
Versions: 1 2 3 4 5 6 7 8 9 10 11 12 13 14 15 16 17 18 19 20 21 22 23 24 25 26 27 28 29 30 31 32 33 34 35 36 37 38 39 40 41 42 43 44 45 46 47 48 49 50
247
ASUS44 KBMX 300710
RWRAL

ALABAMA REGIONAL WEATHER ROUNDUP
NATIONAL WEATHER SERVICE BIRMINGHAM AL
200 AM CDT SAT APR 30 2016

NOTE: "FAIR" INDICATES FEW OR NO CLOUDS BELOW 12,000 FEET
WITH NO SIGNIFICANT WEATHER AND/OR OBSTRUCTIONS TO VISIBILITY.

THE REMARK "TC" DENOTES TEMPERATURE IN DEGREES CELSIUS.

ALZ001>011-014-016>018-020-300800-
NORTH ALABAMA

CITY           SKY/WX    TMP DP  RH WIND       PRES   REMARKS
MUSCLE SHOALS  NOT AVBL
HUNTSVILLE     PTCLDY    64  59  83 CALM      29.89S
DECATUR        CLOUDY    61  61 100 CALM      29.90S
HALEYVILLE     FAIR      62  59  90 S9        29.91F
GADSDEN        CLOUDY    61  60  97 CALM      29.91F
$$

ALZ012-013-022-023-030>036-040>044-300800-
WEST CENTRAL ALABAMA

CITY           SKY/WX    TMP DP  RH WIND       PRES   REMARKS
TUSCALOOSA     MOCLDY    64  62  93 S5        29.90F
$$

ALZ015-024>027-033>036-040>044-300800-
CENTRAL ALABAMA

CITY           SKY/WX    TMP DP  RH WIND       PRES   REMARKS
BIRMINGHAM     PTCLDY    63  62  97 CALM      29.91F
MONTGOMERY     MOCLDY    67  63  87 SE3       29.91F
SHELBY CO ARPT PTCLDY    62  61  96 CALM      29.90F
MAXWELL AFB    PTCLDY    65  64  96 SE3       29.90F
GREENVILLE     FAIR      65  60  84 SE3       29.90F
$$

ALZ019-021-028-029-037-038-045>048-300800-
EAST CENTRAL ALABAMA

CITY           SKY/WX    TMP DP  RH WIND       PRES   REMARKS
ANNISTON       CLOUDY    65  61  87 CALM      29.91R
ALEXANDER CITY PTCLDY    63  63 100 CALM      29.92F
AUBURN         CLOUDY    65  63  93 N3        29.93R
$$

ALZ051>064-300800-
SOUTHWEST ALABAMA

CITY           SKY/WX    TMP DP  RH WIND       PRES   REMARKS
MOBILE         CLOUDY    73  73 100 SE10      29.87F
BROOKLEY FIELD CLOUDY    74  73  97 E12       29.88F
EVERGREEN      CLOUDY    65  62  90 CALM      29.91F
$$

ALZ049-050-065>069-300800-
SOUTHEAST ALABAMA

CITY           SKY/WX    TMP DP  RH WIND       PRES   REMARKS
DOTHAN         PTCLDY    69  65  86 CALM      29.96F
OZARK          CLOUDY    69  66  91 E2        29.92F
TROY           CLOUDY    66  64  93 CALM      29.94F
EUFAULA        FAIR      67  63  87 CALM      29.91F
$$




USA.gov is the U.S. government's official web portal to all federal, state and local government web resources and services.